[Date Prev][Date Next][Thread Prev][Thread Next] - [Date Index][Thread Index][Author Index]
2 Line ISS Keps 1-12
- Subject: [sarex] 2 Line ISS Keps 1-12
- From: "Dave Larsen PhD" <doc@xxxxxxxxxxx>
- Date: Sat, 12 Jan 2002 03:14:45 -0800
ISS
1 25544U 98067A 02012.16868742 .00065106 00000-0 89038-3 0 9491
2 25544 51.6402 117.0299 0006990 294.7819 136.6593 15.56787298179696
----
Via the sarex mailing list at AMSAT.ORG courtesy of AMSAT-NA.
To unsubscribe, send "unsubscribe sarex" to Majordomo@amsat.org
AMSAT Home